STARLINK-2534 (48311 NORAD) Tracking and Keplerian Element Data

This shows tracking and keplerian element data for the satellite.

Feedback or suggestion? Click here.




ElementValue
Catalog48311
NameSTARLINK-2534
Epoch Orbit1438
Epoch Day210.87158711
Epoch Year2021
RAAN90.5617
Inclination53.0564
Eccentricity0.0002063
Argument of Perigee81.8096
Mean Anonmoly278.3127
Mean Motion15.06406211
Decay Rate1.086E-05
L11 48311U 21036AM 21210.87158711 .00001086 00000-0 91817-4 0 9998
L22 48311 53.0564 90.5617 0002063 81.8096 278.3127 15.06406211 14385

Live tracking and technical data element details for STARLINK-2534 (NORAD 48311). STARLINK-2534 can be tracked NOW for your location showing map with azimuth and elevation plus other details from your city location.

Track the satellite on the map from your city or location and see movement details for azimuth, elevation, latitude, longitude, range, height, and movement on the map or in text.







IsCatalogInMostPopularTable: catalog: 48311, numindb: 33
Update: records affected: 1



GetName: 48311 STARLINK-2534

Hit Count: updated at: Sat, 31 Jul 2021 14:33:07 GMT